STARLINK-37373, 68848

Orbit data source: Space-Track

STARLINK-37373, 68848 is a payload satellite owned by SpaceX/Seattle (US) in SSO that was launched on Sun, 26 Apr 2026 UTC via an FALCON 9 launch vehicle from the Air Force Western Test Range (AFWTR). Payload-class satellites include a variety of spacecraft equipped with specific instruments for various scientific and technological missions. These include communications satellites like Starlink; space stations such as the ISS; scientific satellites like the Hubble; Earth observation satellites from companies like Planet Labs, Umbra, and HawkEye 360; GPS; miniature CubeSats for education and research; and military/defense satellites.

Loading next visibility...
Identifier
68848, 2026-094K
Orbit
SSO
Country
Flag of USUS
Related business
Manufacturer
SpaceX/Seattle
Mission
Operational spacecraft
Bus & Motor
STARLINK V2MO, Unknown motor
Mass
575 kg wet, ~530 kg dry
Launch date (UTC)
2026-04-26 (2 months ago)
Launch vehicle
FALCON 9
Launch site
Air Force Western Test Range (AFWTR)
Object type
Payload
Rocket body
Debris
Shape & HBR
Unknown shape, 14.5 m
Radar Cross Section
Large (>1 m²)

Expand to show TLE details & history
Last TLE update: 22 hours ago

TLE from 22 hours ago
0 STARLINK-37373
1 68848U 26094K   26170.94908520  .00012011  00000-0  37363-3 0  9998
2 68848  97.2827 185.3857 0002510  67.1186 293.0321 15.33455699  8474
Epoch: 2026-06-19T22:46Z
TLE epoch observation values (Epoch: 2026-06-19T22:46:40.961Z)
Latitude
-0.00007°
Longitude
-64.45569°
Altitude
467.952 km
Speed
7.633 km/s
True Right ascension
12h 21m 32s
True Declination
0° 00' 00"
Sunlit
Object was in daylight at epoch
Visualization orbit readout
Latitude
Unknown
Longitude
Unknown
Altitude
Unknown
Speed
Unknown
Apparent Right ascension
Unknown
Apparent Declination
Unknown
Sunlit
N/A
Visualization observer readout
Local Sidereal Time
07:14:14
Azimuth
Unknown
Elevation
Unknown
Doppler factor
Unknown
Orbital elements
Apogee altitude
464.171 km
Perigee altitude
460.737 km
Semi-major axis
6,840.591 km
Eccentricity
0.00025
Inclination
97.2827°
RAAN
185.3857°
Arg. of periapsis
67.1186°
True anomaly
293.00563°
Mean anomaly
293.0321°
Eccentric anomaly
293.01886°
Mean motion
3.83621 °/min
Orbital period
93.84 mins
BSTAR
0.00037363
Loading maneuver chart data...
Computing Atmospheric mass density...
Loading historical data...
Loading historical data...
Loading historical data...
Loading historical data...
Loading historical data...
Loading historical data...
Loading historical data...

Documentation

Showing up to 5 results
|